User: anonymous   Login
Location: Unspecified
(0.0000°N, 0.0000°E)
Time: 06:51:41
(UTC+02:00)
Language:

PSLV R/B - Orbit

View from above orbital plane
View from above orbital plane
View from above satellite
View from above satellite

Ground track
Ground track

The orbit data is extracted from the following two-line orbital elements,

1 29713U 07001E   16209.51153299  .00000306  00000-0  41944-4 0  9998
2 29713  97.7206 185.1344 0026874  81.9798 278.4465 14.84830356515885
Epoch (UTC): 27 July 2016 12:16:36
Eccentricity: 0.0026874
inclination: 97.7206°
perigee height: 595 km
apogee height: 633 km
right ascension of ascending node: 185.1344°
argument of perigee: 81.9798°
revolutions per day: 14.84830356
mean anomaly at epoch: 278.4465°
orbit number at epoch: 51588

The dashed part of the orbit path shows where the satellite is in the earth's shadow,  

DLR